Regional Weather Roundup
Issued by NWS

Home | Current Version | Previous Version | Text Only | Print | Product List | Glossary Off
Versions: 1 2 3 4 5 6 7 8 9 10 11 12 13 14 15 16 17 18 19 20 21 22 23 24 25 26 27 28 29 30 31 32 33 34 35 36 37 38 39 40 41 42 43 44 45 46 47 48 49 50

000
ASUS43 KBIS 250010
RWRND
NORTH DAKOTA REGIONAL WEATHER ROUNDUP
NATIONAL WEATHER SERVICE EASTERN NORTH DAKOTA/GRAND FORKS ND
700 PM CDT THU MAY 24 2018

  NOTE: "FAIR" INDICATES FEW OR NO CLOUDS BELOW 12,000 FEET WITH NO
  SIGNIFICANT WEATHER AND/OR OBSTRUCTIONS TO VISIBILITY.

NDZ001>003-009>011-017-250100-
...NORTHWEST NORTH DAKOTA...

CITY           SKY/WX    TMP DP  RH WIND       PRES   REMARKS
WILLISTON      FAIR      78  55  44 W14       29.74F
6HR MIN TEMP:  68; 6HR MAX TEMP:  80; 6HR PCP: TRACE;

MINOT          FAIR      81  52  36 SW20G26   29.69S
MINOT AFB      FAIR      77  53  42 W18G26    29.68S
6HR MIN TEMP:  74; 6HR MAX TEMP:  87;

$$

NDZ018>021-031>035-040>046-250100-
...SOUTHWEST NORTH DAKOTA...

CITY           SKY/WX    TMP DP  RH WIND       PRES   REMARKS
BISMARCK       FAIR      83  54  36 W20G25    29.75S
DICKINSON      FAIR      77  52  41 W20G28    29.79S
GARRISON         N/A     79  52  38 W18G24    29.73R
HETTINGER      FAIR      78  52  40 W20G28    29.85S
$$

NDZ004>008-012>016-024-026-027-054-250100-
...NORTHEAST NORTH DAKOTA...

CITY           SKY/WX    TMP DP  RH WIND       PRES   REMARKS
GRAND FORKS    FAIR      90  53  28 S18G28    29.64F
GRAND FORKS AF FAIR      89  52  28 SW18G29   29.65F
DEVILS LAKE    FAIR      79  56  45 SW12      29.68S
$$

NDZ022-023-025-028>030-036>039-047>053-250100-
...SOUTHEAST NORTH DAKOTA...

CITY           SKY/WX    TMP DP  RH WIND       PRES   REMARKS
JAMESTOWN      FAIR      84  54  35 SW14      29.72S
FARGO          LGT RAIN  87  59  38 S16G29    29.71S
WAHPETON       FAIR      88  54  31 SW17G23   29.76S
$$




USA.gov is the U.S. government's official web portal to all federal, state and local government web resources and services.